Weather History for Athens, OH

Change the Weather History Date:

Friday, December 7, 2012

  Actual Average (KPKB) Record (KPKB)
Temperature  
Mean Temperature 48 °F 37 °F  
Max Temperature 52 °F 46 °F 73 °F (2004)
Min Temperature 43 °F 29 °F 0 °F (1977)
Degree Days  
Heating Degree Days 18 28  
Month to date heating degree days 187  
Cooling Degree Days 0 0  
Month to date cooling degree days 0  
Moisture  
Dew Point 49 °F    
Average Humidity 95    
Maximum Humidity 97    
Minimum Humidity 88    
Precipitation  
Precipitation 0.00 in 0.11 in 1.06 in (2012)
Month to date precipitation 0.74  
Sea Level Pressure  
Sea Level Pressure 29.95 in    
Wind  
Wind Speed 2 mph (South)    
Max Wind Speed 13 mph    
Max Gust Speed -    
Visibility 8 miles    
Events Rain    
T = Trace of Precipitation, MM = Missing Value Source: NWS Daily Summary

Daily Weather History Graph

Daily Weather History Graph

Search for Another Location

Airport:

Trip Planner

Search our weather history database for the weather conditions in past years. The results will help you decide how hot, cold, wet, or windy it might be!

Date:

Astronomy

Dec. 07, 2012 Rise Set
Actual Time 7:35 AM EST 5:05 PM EST
Civil Twilight 7:05 AM EST 5:35 PM EST
Nautical Twilight 6:32 AM EST 6:09 PM EST
Astronomical Twilight 5:59 AM EST 6:41 PM EST
Moon 12:55 AM EST (12/7) 1:00 PM EST (12/7)
Length of Visible Light 10h 30m
Length of Day
9h 30m
Last Quarter, 39% of the Moon is Illuminated
Dec 7
Last Quarter
Dec 13
New
Dec 20
First Quarter
Dec 28
Full
Jan 4
Last Quarter

Hourly Weather History & Observations

Time (EST) Temp. Dew Point Humidity Pressure Visibility Wind Dir Wind Speed Gust Speed Precip Events Conditions
12:15 AM 43.2 °F 41.4 °F 93% 30.01 in 10.0 mi Calm Calm - N/A   Overcast
12:35 AM 43.2 °F 41.5 °F 94% 30.00 in 10.0 mi Calm Calm - N/A Rain Light Rain
12:55 AM 43.3 °F 41.9 °F 95% 29.99 in 10.0 mi Calm Calm - N/A   Overcast
1:15 AM 46.9 °F 43.5 °F 88% 30.00 in 10.0 mi South 4.6 mph - N/A   Overcast
1:35 AM 47.3 °F 43.9 °F 88% 29.99 in 10.0 mi South 4.6 mph - N/A Rain Light Rain
1:55 AM 46.9 °F 44.2 °F 90% 29.99 in 10.0 mi Calm Calm - N/A Rain Light Rain
2:15 AM 47.7 °F 45.3 °F 92% 29.99 in 10.0 mi South 4.6 mph - N/A Rain Light Rain
2:35 AM 47.7 °F 45.1 °F 91% 29.99 in 10.0 mi South 4.6 mph - N/A Rain Light Rain
2:55 AM 47.7 °F 45.5 °F 92% 29.98 in 7.0 mi SSE 5.8 mph - N/A Rain Rain
3:15 AM 48.2 °F 46.4 °F 93% 29.99 in 10.0 mi WSW 3.5 mph - N/A Rain Light Rain
3:35 AM 48.4 °F 46.6 °F 93% 29.99 in 10.0 mi SSW 3.5 mph - N/A   Overcast
3:55 AM 48.6 °F 46.6 °F 93% 29.98 in 10.0 mi South 3.5 mph - N/A Rain Light Rain
4:15 AM 48.4 °F 46.6 °F 93% 29.98 in 7.0 mi SSW 3.5 mph - N/A Rain Light Rain
4:35 AM 48.6 °F 46.8 °F 93% 29.98 in 10.0 mi SSW 3.5 mph - N/A Rain Light Rain
4:55 AM 48.6 °F 46.9 °F 94% 29.98 in 7.0 mi SSW 3.5 mph - N/A Rain Rain
5:15 AM 48.6 °F 46.9 °F 94% 29.98 in 7.0 mi Calm Calm - N/A Rain Rain
5:35 AM 48.4 °F 46.9 °F 95% 29.99 in 7.0 mi SSW 3.5 mph - N/A Rain Rain
5:55 AM 48.7 °F 47.3 °F 95% 29.99 in 10.0 mi SSW 3.5 mph - N/A Rain Light Rain
6:15 AM 48.7 °F 47.3 °F 95% 29.99 in 7.0 mi South 4.6 mph - N/A Rain Rain
6:35 AM 48.7 °F 47.5 °F 95% 29.99 in 7.0 mi SSW 3.5 mph - N/A   Light Drizzle
6:55 AM 49.1 °F 47.7 °F 95% 29.99 in 10.0 mi South 3.5 mph - N/A   Overcast
7:15 AM 49.1 °F 47.8 °F 95% 30.00 in 5.0 mi SSW 3.5 mph - N/A   Light Drizzle
7:35 AM 49.1 °F 47.8 °F 95% 30.00 in 5.0 mi Calm Calm - N/A   Light Drizzle
7:55 AM 49.1 °F 48.0 °F 96% 30.00 in 5.0 mi SSW 3.5 mph - N/A   Light Drizzle
8:15 AM 49.3 °F 48.2 °F 96% 30.00 in 7.0 mi SSW 3.5 mph - N/A   Overcast
8:35 AM 49.5 °F 48.4 °F 96% 30.01 in 10.0 mi SSW 3.5 mph - N/A   Overcast
8:55 AM 49.6 °F 48.6 °F 96% 30.01 in 4.0 mi South 3.5 mph - N/A   Drizzle
9:15 AM 50.0 °F 48.9 °F 96% 30.00 in 10.0 mi South 3.5 mph - N/A   Overcast
9:35 AM 50.0 °F 49.1 °F 97% 30.00 in 10.0 mi SSW 4.6 mph - N/A Rain Light Rain
9:55 AM 50.4 °F 49.3 °F 96% 30.01 in 10.0 mi SSW 3.5 mph - N/A Rain Rain
10:15 AM 50.5 °F 49.3 °F 95% 30.01 in 7.0 mi SSE 3.5 mph - N/A Rain Rain
10:35 AM 50.9 °F 49.5 °F 95% 30.01 in 10.0 mi South 4.6 mph - N/A Rain Light Rain
10:55 AM 50.9 °F 49.5 °F 95% 30.01 in 10.0 mi Calm Calm - N/A Rain Light Rain
11:15 AM 51.3 °F 50.0 °F 95% 30.00 in 10.0 mi South 4.6 mph - N/A Rain Rain
11:35 AM 51.4 °F 50.0 °F 95% 30.00 in 7.0 mi South 4.6 mph - N/A Rain Rain
11:55 AM 51.8 °F 50.0 °F 94% 29.98 in 7.0 mi Calm Calm - N/A Rain Light Rain
12:15 PM 51.8 °F 50.0 °F 94% 29.97 in 7.0 mi Calm Calm - N/A Rain Light Rain
12:35 PM 51.8 °F 50.2 °F 94% 29.97 in 10.0 mi SSW 4.6 mph - N/A Rain Light Rain
12:55 PM 51.8 °F 50.2 °F 94% 29.96 in 7.0 mi South 3.5 mph - N/A Rain Rain
1:15 PM 52.0 °F 50.5 °F 95% 29.95 in 10.0 mi South 4.6 mph - N/A Rain Light Rain
1:35 PM 52.0 °F 50.5 °F 95% 29.94 in 7.0 mi South 3.5 mph - N/A Rain Light Rain
1:55 PM 52.2 °F 50.7 °F 95% 29.94 in 10.0 mi South 3.5 mph - N/A   Drizzle
2:15 PM 52.2 °F 50.5 °F 94% 29.93 in 10.0 mi South 3.5 mph - N/A Rain Rain
2:35 PM 52.0 °F 50.4 °F 94% 29.93 in 10.0 mi South 3.5 mph - N/A Rain Light Rain
2:55 PM 52.0 °F 50.5 °F 95% 29.93 in 7.0 mi South 3.5 mph - N/A Rain Light Rain
3:15 PM 51.8 °F 50.4 °F 95% 29.92 in 5.0 mi Calm Calm - N/A Rain Light Rain
3:35 PM 51.8 °F 50.2 °F 94% 29.93 in 7.0 mi SSW 4.6 mph - N/A   Drizzle
3:55 PM 51.6 °F 50.0 °F 94% 29.92 in 7.0 mi Calm Calm - N/A   Drizzle
4:15 PM 51.4 °F 50.0 °F 95% 29.91 in 7.0 mi Calm Calm - N/A Rain Light Rain
4:35 PM 51.4 °F 50.0 °F 95% 29.91 in 10.0 mi Calm Calm - N/A   Overcast
4:55 PM 51.3 °F 50.0 °F 95% 29.91 in 10.0 mi Calm Calm - N/A   Overcast
5:15 PM 51.3 °F 50.0 °F 95% 29.91 in 7.0 mi Calm Calm - N/A Rain Rain
5:35 PM 51.1 °F 50.0 °F 96% 29.91 in 4.0 mi Calm Calm - N/A Rain Rain
5:55 PM 51.1 °F 50.0 °F 96% 29.91 in 5.0 mi Calm Calm - N/A Rain Light Rain
6:15 PM 50.9 °F 49.8 °F 96% 29.90 in 3.0 mi East 3.5 mph - N/A Rain Light Rain
6:55 PM 50.9 °F 50.0 °F 97% 29.89 in 4.0 mi Calm Calm - N/A Rain Rain
7:15 PM 50.9 °F 50.0 °F 97% 29.89 in 7.0 mi Calm Calm - N/A Rain Light Rain
7:35 PM 50.9 °F 50.0 °F 97% 29.89 in 7.0 mi Calm Calm - N/A   Overcast
7:55 PM 50.9 °F 50.0 °F 97% 29.89 in 4.0 mi SSE 3.5 mph - N/A Rain Light Rain
8:15 PM 50.9 °F 50.0 °F 97% 29.89 in 5.0 mi Calm Calm - N/A   Light Drizzle
8:35 PM 50.9 °F 50.0 °F 97% 29.89 in 4.0 mi Calm Calm - N/A Rain Rain
8:55 PM 51.1 °F 50.0 °F 96% 29.90 in 7.0 mi WNW 12.7 mph - N/A Rain Light Rain
9:15 PM 51.3 °F 50.2 °F 96% 29.89 in 5.0 mi Calm Calm - N/A   Drizzle
9:35 PM 50.9 °F 50.0 °F 97% 29.88 in 5.0 mi Calm Calm - N/A Rain Light Rain
9:55 PM 50.9 °F 50.0 °F 97% 29.88 in 4.0 mi Calm Calm - N/A Rain Heavy Rain
10:15 PM 51.6 °F 50.5 °F 96% 29.88 in 5.0 mi Calm Calm - N/A Rain Rain
10:35 PM 51.4 °F 50.4 °F 96% 29.88 in 5.0 mi Calm Calm - N/A Rain Light Rain
10:55 PM 51.6 °F 50.7 °F 97% 29.88 in 3.0 mi South 4.6 mph - N/A Rain Heavy Rain
11:15 PM 51.8 °F 50.9 °F 97% 29.88 in 7.0 mi Calm Calm - N/A Rain Light Rain
11:35 PM 52.2 °F 51.3 °F 97% 29.88 in 7.0 mi South 3.5 mph - N/A   Overcast
11:55 PM 52.5 °F 51.6 °F 97% 29.88 in 5.0 mi SSW 4.6 mph - N/A Rain Rain